[[{"header":{"parameterUnit":"m.s-1","parameterCategory":1,"la1":30.2991,"la2":30.254,"lo1":-89.0895,"lo2":-89.0444,"dy":0.0017,"dx":0.0017,"nx":28,"ny":28,"refTime":"2025-04-15T21:00:00:Z","depth":0,"parameterNumber":2,"parameterNumberName":"U-component_of_WINDS"},"data":[0,0,0,0,0,0,0,0,0,0,0,0,0,0,0,0,0,0,0,0,0,0,0,0,0,0,0,0,0,0,0,0,0,0,0,0,0,0,0,0,0,0,0,0,0,0,0,0,0,0,0,0,0,0,0,0,0,0,-1.9895,-1.9896,0,-1.9995,-1.9996,-1.9997,-2.0003,-2.0002,-2.0001,-2.0,-2.0103,-2.0106,-2.011,0,0,0,0,0,0,0,0,0,0,0,0,0,-1.9711,-1.9714,-1.9895,-1.9896,-1.9898,-1.9995,-1.9996,-1.9998,-2.0003,-2.0002,-2.0001,-1.9999,-2.0101,-2.0106,-2.011,0,0,0,0,0,0,0,0,0,0,0,0,0,-1.9799,-1.9715,-1.9895,-1.9912,-1.9915,-1.9995,-1.9996,-1.9998,-2.0004,-2.0002,-2.0,-1.9999,-2.01,-2.0105,-2.0111,-2.018,0,0,-2.0128,-2.0131,0,0,0,0,0,0,0,0,-1.9794,-1.9805,-1.9909,-1.9911,-1.9914,-1.9985,-1.9969,-2.0059,-2.0004,-1.997,-2.0,-1.9998,-2.0065,-2.0073,-2.0096,-2.0185,-2.019,-2.0129,-2.0132,-2.0135,-2.0136,0,0,0,0,0,0,0,-1.9788,-1.9801,-1.9935,-1.991,-1.9914,-1.9915,-1.9926,-1.9986,-2.0026,-1.9973,-1.9974,-1.9985,-2.0066,-2.009,-2.0098,-2.0191,-2.0129,-2.0134,-2.0137,-2.014,-2.0342,-2.0344,0,0,0,0,0,0,-1.9778,-1.9796,-1.9932,-1.9938,-1.9849,-1.992,-1.9932,-1.9964,-2.0025,-2.0033,-1.9987,-1.9985,-2.0081,-2.0092,-2.0102,-2.0187,-2.0135,-2.014,-2.0143,-2.034,-2.0343,-2.0345,0,0,0,0,0,0,-1.9774,-1.979,-1.9928,-1.9867,-1.9885,-1.9925,-1.9961,-1.9967,-1.9991,-2.0036,-2.0043,-2.0004,-2.0081,-2.0094,-2.0161,-2.0191,-2.0143,-2.0148,-2.0338,-2.0341,-2.0344,-2.0358,0,0,0,0,0,0,-1.9769,-1.9789,-1.9815,-1.9868,-1.9888,-1.9985,-1.9963,-1.997,-2.0001,-2.0,-2.0054,-2.0061,-2.008,-2.0152,-2.0166,-2.0198,-2.0152,-2.0336,-2.0339,-2.0343,-2.0355,-2.0361,-2.0366,0,0,0,0,0,-1.9762,-1.9815,-1.9816,-1.9833,-1.9922,-1.9986,-1.9998,-2.0019,-2.0003,-2.003,-2.0059,-2.0059,-2.0185,-2.0159,-2.0175,-2.0209,-2.0334,-2.0338,-2.0343,-2.0353,-2.036,-2.0366,0,0,0,0,0,0,-1.9766,-1.9823,-1.9824,-1.9896,-1.9936,-1.9987,-2.0022,-2.0026,-2.0071,-2.0069,-2.0093,-2.0105,-2.0171,-2.0197,-2.0166,-2.0279,-2.0258,-2.0266,-2.026,-2.0267,-2.0273,-2.0265,-2.0157,0,0,0,0,0,-1.9775,-1.9822,-1.9869,-1.9928,-1.9948,-1.9982,-2.001,-2.0023,-2.0066,-2.0083,-2.0116,-2.0158,-2.0207,-2.0238,-2.0286,-2.0359,-2.0371,-2.039,-2.0395,-2.04,-2.0406,-2.0447,-2.0456,-2.036,-2.0359,-2.0359,0,0,-1.9794,-1.9831,-1.9859,-1.993,-1.9962,-2.0011,-1.9996,-2.0048,-2.0084,-2.0091,-2.0156,-2.0182,-2.023,-2.03,-2.0333,-2.0323,-2.0435,-2.0405,-2.0408,-2.0413,-2.0452,-2.0461,-2.0469,-2.0363,-2.0362,-2.0361,0,0,-1.9854,-1.9887,-1.9939,-1.9972,-2.0022,-2.0044,-2.0056,-2.0107,-2.0124,-2.019,-2.0196,-2.0239,-2.0323,-2.0357,-2.0385,-2.0458,-2.046,-2.0473,-2.0502,-2.0541,-2.0549,-2.0556,-2.0582,-2.0591,-2.0479,-2.0479,-2.0479,0,-1.9872,-1.9945,-1.9966,-2.0018,-2.0049,-2.0057,-2.011,-2.0141,-2.0204,-2.0225,-2.0213,-2.0318,-2.0351,-2.043,-2.0447,-2.047,-2.0485,-2.0467,-2.0546,-2.0553,-2.056,-2.0585,-2.0595,-2.048,-2.048,-2.048,-2.048,0,-1.9965,-2.0016,-2.0052,-2.0112,-2.0147,-2.02,-2.0228,-2.0261,-2.0271,-2.0294,-2.0361,-2.04,-2.0456,-2.0475,-2.0485,-2.0555,-2.0548,-2.0541,-2.052,-2.057,-2.0594,-2.0604,-2.0482,-2.0482,-2.0481,-2.0481,0,0,-2.0031,-2.0101,-2.0114,-2.0141,-2.0196,-2.0236,-2.0289,-2.0343,-2.0371,-2.0414,-2.0459,-2.0529,-2.0523,-2.0555,-2.0569,-2.0603,-2.0658,-2.0592,-2.0594,-2.0603,-2.0738,-2.0743,-2.0754,-2.066,-2.0662,-2.0663,-2.0734,0,-2.0097,-2.0191,-2.0211,-2.0292,-2.034,-2.0347,-2.0393,-2.0432,-2.0455,-2.0499,-2.0524,-2.0574,-2.0562,-2.0582,-2.0616,-2.0644,-2.0686,-2.064,-2.0702,-2.0704,-2.069,-2.0766,-2.0772,-2.0836,-2.0743,-2.0745,-2.0746,0,-2.0187,-2.0232,-2.0318,-2.0366,-2.0387,-2.0428,-2.0479,-2.052,-2.0565,-2.0579,-2.0614,-2.0624,-2.068,-2.0656,-2.0733,-2.0701,-2.0728,-2.0746,-2.0749,-2.0756,-2.0728,-2.0775,-2.0858,-2.0867,-2.0761,-2.076,-2.0759,0,-2.0227,-2.0308,-2.037,-2.0393,-2.0451,-2.048,-2.0506,-2.0548,-2.0579,-2.0624,-2.0644,-2.0695,-2.0723,-2.0762,-2.0785,-2.0766,-2.086,-2.0839,-2.0874,-2.0873,-2.0894,-2.0892,-2.0982,-2.0911,-2.091,-2.091,-2.091,0,-2.0299,-2.0351,-2.0388,-2.0427,-2.0485,-2.0508,-2.0566,-2.0591,-2.0629,-2.0672,-2.0682,-2.0722,-2.0751,-2.0795,-2.0814,-2.0875,-2.0887,-2.09,-2.0905,-2.09,-2.0898,-2.0918,-2.0914,-2.0913,-2.0912,-2.0912,-2.0911,0,-2.0353,-2.038,-2.0448,-2.0497,-2.0511,-2.0552,-2.0595,-2.0632,-2.0655,-2.071,-2.0724,-2.076,-2.0813,-2.084,-2.0906,-2.0918,-2.0987,-2.0988,-2.0972,-2.0974,-2.1007,-2.1004,-2.1113,-2.1128,-2.1047,-2.1048,-2.1048,0,-2.0397,-2.0438,-2.0491,-2.0521,-2.0547,-2.0595,-2.0626,-2.065,-2.0683,-2.0736,-2.0767,-2.082,-2.0864,-2.0948,-2.098,-2.1031,-2.1034,-2.1069,-2.1042,-2.1035,-2.1035,-2.1032,-2.1036,-2.1073,-2.1074,-2.1075,-2.1075,0,-2.0474,-2.0485,-2.053,-2.058,-2.0618,-2.0659,-2.0699,-2.0722,-2.0752,-2.0789,-2.0843,-2.0877,-2.0944,-2.0997,-2.105,-2.1076,-2.1081,-2.1083,-2.1094,-2.109,-2.1078,-2.1085,-2.0985,-2.1081,-2.108,-2.108,-2.108,-2.1079,-2.0525,-2.0561,-2.0604,-2.0654,-2.0687,-2.0724,-2.0761,-2.0789,-2.0834,-2.089,-2.0902,-2.0959,-2.1002,-2.1073,-2.1101,-2.1146,-2.1139,-2.1155,-2.1159,-2.1162,-2.1164,-2.1071,-2.1156,-2.1156,-2.1156,-2.1156,-2.1156,0,-2.0601,-2.0629,-2.0675,-2.0731,-2.077,-2.0771,-2.0815,-2.0848,-2.0898,-2.0938,-2.0981,-2.1043,-2.1094,-2.113,-2.1182,-2.1211,-2.1215,-2.1224,-2.1222,-2.1228,-2.1167,-2.1153,-2.122,-2.122,-2.122,-2.122,-2.122,-2.122,-2.0646,-2.0707,-2.0724,-2.0801,-2.0829,-2.0885,-2.091,-2.0944,-2.0976,-2.1045,-2.1087,-2.111,-2.1148,-2.1203,-2.125,-2.1259,-2.1278,-2.1287,-2.1297,-2.1239,-2.1233,-2.1226,-2.1212,-2.1291,-2.1291,-2.1354,-2.1354,-2.1355]},{"header":{"parameterUnit":"m.s-1","parameterCategory":1,"la1":30.2991,"la2":30.254,"lo1":-89.0895,"lo2":-89.0444,"dy":0.0017,"dx":0.0017,"nx":28,"ny":28,"refTime":"2025-04-15T21:00:00:Z","depth":0,"parameterNumber":3,"parameterNumberName":"V-component_of_WINDS"},"data":[0,0,0,0,0,0,0,0,0,0,0,0,0,0,0,0,0,0,0,0,0,0,0,0,0,0,0,0,0,0,0,0,0,0,0,0,0,0,0,0,0,0,0,0,0,0,0,0,0,0,0,0,0,0,0,0,0,0,1.4314,1.4314,0,1.4252,1.4251,1.4251,1.4166,1.4164,1.4163,1.4162,1.4098,1.4098,1.4097,0,0,0,0,0,0,0,0,0,0,0,0,0,1.4359,1.4359,1.4314,1.4313,1.4313,1.4252,1.4251,1.4251,1.4166,1.4164,1.4163,1.4161,1.4098,1.4098,1.4097,0,0,0,0,0,0,0,0,0,0,0,0,0,1.4323,1.4359,1.4314,1.4263,1.4258,1.4252,1.4251,1.425,1.4166,1.4164,1.4162,1.416,1.4098,1.4098,1.4097,1.4137,0,0,1.4096,1.4096,0,0,0,0,0,0,0,0,1.4325,1.4321,1.4272,1.4267,1.4261,1.4214,1.4244,1.4212,1.4167,1.4201,1.4162,1.4159,1.4139,1.4135,1.4128,1.4134,1.4131,1.4096,1.4095,1.4095,1.4095,0,0,0,0,0,0,0,1.4327,1.4323,1.429,1.4271,1.4264,1.4243,1.4236,1.4237,1.4183,1.4198,1.4192,1.4186,1.4135,1.4128,1.4126,1.413,1.4096,1.4095,1.4095,1.4095,1.4164,1.4166,0,0,0,0,0,0,1.4338,1.4326,1.4292,1.4288,1.4288,1.4244,1.4236,1.4232,1.4182,1.4173,1.4187,1.4182,1.413,1.4126,1.4123,1.4164,1.4095,1.4095,1.4094,1.4162,1.4164,1.4167,0,0,0,0,0,0,1.4339,1.4335,1.4294,1.4305,1.4298,1.4246,1.4242,1.4231,1.4224,1.4174,1.4164,1.419,1.4129,1.4124,1.4134,1.4161,1.4094,1.4094,1.4159,1.4162,1.4165,1.4249,0,0,0,0,0,0,1.4341,1.4336,1.4351,1.4306,1.4298,1.4306,1.4243,1.4232,1.4224,1.4216,1.4175,1.4166,1.4127,1.4135,1.4133,1.4159,1.4094,1.4156,1.4161,1.4164,1.4243,1.4254,1.4264,0,0,0,0,0,1.4342,1.4377,1.4352,1.4349,1.4315,1.4308,1.4303,1.4257,1.4226,1.424,1.4208,1.4167,1.4159,1.4137,1.4134,1.416,1.4154,1.4159,1.4164,1.4239,1.4252,1.4264,0,0,0,0,0,0,1.4427,1.4371,1.4342,1.4363,1.4341,1.4294,1.431,1.4274,1.426,1.4253,1.4197,1.4188,1.4205,1.4183,1.416,1.4195,1.415,1.4155,1.4208,1.422,1.423,1.4235,1.4093,0,0,0,0,0,1.4448,1.4447,1.4398,1.4422,1.4412,1.4363,1.4358,1.4325,1.4299,1.429,1.4258,1.4235,1.4227,1.4223,1.4212,1.424,1.4229,1.4257,1.4267,1.4276,1.428,1.4291,1.4302,1.4182,1.4182,1.4182,0,0,1.4492,1.4461,1.4464,1.4438,1.4416,1.4416,1.4356,1.4358,1.4357,1.429,1.4297,1.4273,1.4243,1.4262,1.4268,1.4245,1.4311,1.4282,1.4289,1.4289,1.4297,1.4309,1.4319,1.4186,1.4185,1.4185,0,0,1.4571,1.4548,1.4564,1.4544,1.4513,1.448,1.4484,1.4442,1.4423,1.4429,1.4378,1.4376,1.4364,1.4344,1.4333,1.4404,1.4365,1.4402,1.4456,1.4467,1.4477,1.4485,1.4508,1.4518,1.4407,1.4407,1.4407,0,1.4629,1.4626,1.4577,1.4583,1.4572,1.4511,1.4527,1.451,1.4477,1.4471,1.4445,1.4427,1.4403,1.4415,1.4432,1.4426,1.4428,1.4406,1.4479,1.4487,1.4494,1.4515,1.4525,1.4412,1.4411,1.4411,1.441,0,1.4699,1.4698,1.4715,1.4684,1.4675,1.4686,1.4638,1.4636,1.4603,1.4573,1.4579,1.4548,1.453,1.4531,1.4499,1.4538,1.4524,1.449,1.4443,1.4511,1.453,1.4538,1.4418,1.4417,1.4415,1.4414,0,0,1.4828,1.477,1.4777,1.4761,1.4722,1.472,1.4728,1.471,1.4708,1.4687,1.4691,1.4682,1.465,1.4637,1.4602,1.4613,1.4669,1.4577,1.4575,1.4593,1.4707,1.4732,1.4743,1.4643,1.4645,1.4646,1.4709,0,1.4898,1.4908,1.4864,1.4884,1.4882,1.4824,1.483,1.4807,1.4779,1.4773,1.4742,1.4735,1.4694,1.4685,1.4693,1.466,1.4691,1.4655,1.4645,1.4645,1.4653,1.4753,1.478,1.4841,1.4717,1.4718,1.4719,0,1.4981,1.4964,1.4985,1.4943,1.4941,1.4947,1.4926,1.4922,1.4893,1.4872,1.4857,1.4818,1.4821,1.4778,1.4781,1.4759,1.4752,1.4735,1.4736,1.4732,1.4685,1.475,1.4859,1.4868,1.4731,1.473,1.4729,0,1.5071,1.5054,1.5064,1.5053,1.5005,1.5011,1.4991,1.496,1.4952,1.4934,1.4928,1.4911,1.4901,1.4888,1.4845,1.4818,1.4852,1.4806,1.4834,1.4835,1.4842,1.4842,1.495,1.4841,1.4841,1.4841,1.4841,0,1.5153,1.5168,1.5103,1.5109,1.5123,1.5073,1.5088,1.5062,1.5036,1.5035,1.4984,1.4984,1.4928,1.4921,1.4887,1.4894,1.489,1.4873,1.4863,1.4876,1.4878,1.487,1.4864,1.4843,1.4843,1.4842,1.4842,0,1.5256,1.5214,1.522,1.5174,1.5163,1.5175,1.5136,1.5139,1.5108,1.5107,1.5104,1.5055,1.5045,1.5001,1.498,1.4957,1.4975,1.4957,1.4984,1.4978,1.5007,1.5004,1.5112,1.5123,1.5009,1.501,1.5011,0,1.531,1.5319,1.5275,1.527,1.5253,1.5247,1.5238,1.5189,1.5181,1.5149,1.5156,1.5142,1.5127,1.5113,1.5076,1.5059,1.504,1.5079,1.5037,1.5049,1.5038,1.5037,1.5037,1.5087,1.5089,1.509,1.5091,0,1.541,1.5388,1.5377,1.5359,1.535,1.5333,1.5313,1.5313,1.5257,1.5252,1.524,1.523,1.5208,1.5194,1.5171,1.515,1.5111,1.5105,1.511,1.5123,1.5137,1.5128,1.5007,1.5102,1.5101,1.51,1.51,1.5099,1.5488,1.5493,1.5462,1.5452,1.5432,1.5414,1.5414,1.5383,1.5373,1.5352,1.5323,1.5316,1.5285,1.5251,1.5233,1.5225,1.5203,1.5211,1.5213,1.5215,1.5221,1.514,1.5221,1.5221,1.522,1.522,1.522,0,1.5584,1.5561,1.5552,1.5525,1.5517,1.5482,1.5458,1.5453,1.5447,1.5422,1.5409,1.5396,1.5382,1.5343,1.5324,1.5326,1.5307,1.5323,1.5321,1.5316,1.5243,1.5239,1.5338,1.5338,1.5338,1.5338,1.5338,1.5338,1.5632,1.5639,1.5614,1.561,1.5586,1.5579,1.5568,1.5551,1.5531,1.5518,1.5506,1.5481,1.5451,1.543,1.5415,1.5403,1.5398,1.5419,1.5402,1.5333,1.5322,1.5311,1.5307,1.5419,1.5419,1.5476,1.5476,1.5477]}]]